Time,TemperatureF,DewpointF,PressureIn,WindDirection,WindDirectionDegrees,WindSpeedMPH,WindSpeedGustMPH,Humidity,HourlyPrecipIn,Conditions,Clouds,dailyrainin,SolarRadiationWatts/m^2,SoftwareType,DateUTC
2013-11-02 00:13:00,33.8,23.0,30.18,WNW,295,0.0,0.0,65,0.00,,,0.00,0,weatherlink.com 1.10,2013-11-02 05:13:00,
2013-11-02 00:28:00,33.8,23.0,30.18,WNW,294,0.0,0.0,65,0.00,,,0.00,0,weatherlink.com 1.10,2013-11-02 05:28:00,
2013-11-02 00:43:00,33.9,23.0,30.18,WNW,298,0.0,0.0,65,0.00,,,0.00,0,weatherlink.com 1.10,2013-11-02 05:43:00,
2013-11-02 00:58:00,34.5,24.0,30.19,WNW,292,0.0,2.0,65,0.00,,,0.00,0,weatherlink.com 1.10,2013-11-02 05:58:00,
2013-11-02 01:13:00,34.8,24.0,30.20,West,281,0.0,6.0,64,0.00,,,0.00,0,weatherlink.com 1.10,2013-11-02 06:13:00,
2013-11-02 01:28:00,34.1,23.0,30.20,NW,306,0.0,0.0,65,0.00,,,0.00,0,weatherlink.com 1.10,2013-11-02 06:28:00,
2013-11-02 01:43:00,34.0,24.0,30.20,WNW,287,0.0,11.0,66,0.00,,,0.00,0,weatherlink.com 1.10,2013-11-02 06:43:00,
2013-11-02 01:58:00,33.5,24.0,30.21,West,269,0.0,0.0,67,0.00,,,0.00,0,weatherlink.com 1.10,2013-11-02 06:58:00,
2013-11-02 02:13:00,33.1,24.0,30.21,WNW,287,0.0,0.0,68,0.00,,,0.00,0,weatherlink.com 1.10,2013-11-02 07:13:00,
2013-11-02 02:28:00,33.6,24.0,30.22,NW,318,0.0,5.0,69,0.00,,,0.00,0,weatherlink.com 1.10,2013-11-02 07:28:00,
2013-11-02 02:43:00,33.6,24.0,30.22,WNW,289,0.0,0.0,68,0.00,,,0.00,0,weatherlink.com 1.10,2013-11-02 07:43:00,
2013-11-02 02:58:00,34.4,24.0,30.22,WNW,284,0.0,0.0,66,0.00,,,0.00,0,weatherlink.com 1.10,2013-11-02 07:58:00,
2013-11-02 03:13:00,34.6,24.0,30.23,WNW,282,0.0,0.0,66,0.00,,,0.00,0,weatherlink.com 1.10,2013-11-02 08:13:00,
2013-11-02 03:28:00,34.5,24.0,30.23,West,281,0.0,0.0,66,0.00,,,0.00,0,weatherlink.com 1.10,2013-11-02 08:28:00,
2013-11-02 03:43:00,34.0,24.0,30.24,West,273,0.0,0.0,67,0.00,,,0.00,0,weatherlink.com 1.10,2013-11-02 08:43:00,
2013-11-02 03:58:00,33.6,24.0,30.24,WSW,244,0.0,5.0,68,0.00,,,0.00,0,weatherlink.com 1.10,2013-11-02 08:58:00,
2013-11-02 04:13:00,33.5,24.0,30.23,WNW,285,4.0,9.0,68,0.00,,,0.00,0,weatherlink.com 1.10,2013-11-02 09:13:00,
2013-11-02 04:28:00,33.2,24.0,30.23,WNW,282,0.0,0.0,68,0.00,,,0.00,0,weatherlink.com 1.10,2013-11-02 09:28:00,
2013-11-02 04:43:00,33.4,24.0,30.23,West,273,0.0,0.0,68,0.00,,,0.00,0,weatherlink.com 1.10,2013-11-02 09:43:00,
2013-11-02 04:58:00,32.8,24.0,30.24,West,265,0.0,5.0,69,0.00,,,0.00,0,weatherlink.com 1.10,2013-11-02 09:58:00,
2013-11-02 05:13:00,32.8,24.0,30.24,West,272,0.0,0.0,69,0.00,,,0.00,0,weatherlink.com 1.10,2013-11-02 10:13:00,
2013-11-02 05:28:00,32.4,24.0,30.24,West,275,0.0,0.0,70,0.00,,,0.00,0,weatherlink.com 1.10,2013-11-02 10:28:00,
2013-11-02 05:43:00,32.6,24.0,30.25,WNW,286,7.0,7.0,70,0.00,,,0.00,0,weatherlink.com 1.10,2013-11-02 10:43:00,
2013-11-02 05:58:00,33.0,24.0,30.25,West,269,5.0,8.0,70,0.00,,,0.00,0,weatherlink.com 1.10,2013-11-02 10:58:00,
2013-11-02 06:13:00,33.6,24.0,30.25,West,279,7.0,9.0,69,0.00,,,0.00,0,weatherlink.com 1.10,2013-11-02 11:13:00,
2013-11-02 06:28:00,34.1,24.0,30.26,WNW,289,7.0,10.0,67,0.00,,,0.00,0,weatherlink.com 1.10,2013-11-02 11:28:00,
2013-11-02 06:43:00,32.6,23.0,30.26,WNW,282,0.0,0.0,68,0.00,,,0.00,0,weatherlink.com 1.10,2013-11-02 11:43:00,
2013-11-02 06:58:00,32.4,24.0,30.25,WNW,282,0.0,0.0,71,0.00,,,0.00,0,weatherlink.com 1.10,2013-11-02 11:58:00,
2013-11-02 07:13:00,33.3,24.0,30.25,WNW,294,6.0,7.0,68,0.00,,,0.00,0,weatherlink.com 1.10,2013-11-02 12:13:00,
2013-11-02 07:28:00,33.5,24.0,30.26,NW,309,0.0,0.0,67,0.00,,,0.00,0,weatherlink.com 1.10,2013-11-02 12:28:00,
2013-11-02 07:43:00,32.8,24.0,30.27,NW,304,0.0,0.0,69,0.00,,,0.00,0,weatherlink.com 1.10,2013-11-02 12:43:00,
2013-11-02 07:58:00,31.8,23.0,30.27,NW,305,0.0,0.0,71,0.00,,,0.00,0,weatherlink.com 1.10,2013-11-02 12:58:00,
2013-11-02 08:13:00,33.1,24.0,30.27,NNE,16,0.0,0.0,69,0.00,,,0.00,0,weatherlink.com 1.10,2013-11-02 13:13:00,
2013-11-02 08:28:00,34.4,24.0,30.27,West,260,0.0,0.0,66,0.00,,,0.00,11,weatherlink.com 1.10,2013-11-02 13:28:00,
2013-11-02 08:43:00,33.4,24.0,30.27,WSW,240,0.0,0.0,68,0.00,,,0.00,26,weatherlink.com 1.10,2013-11-02 13:43:00,
2013-11-02 08:58:00,34.2,25.0,30.27,WSW,244,0.0,0.0,68,0.00,,,0.00,63,weatherlink.com 1.10,2013-11-02 13:58:00,
2013-11-02 09:13:00,37.0,26.0,30.27,West,269,0.0,0.0,64,0.00,,,0.00,111,weatherlink.com 1.10,2013-11-02 14:13:00,
2013-11-02 09:28:00,39.0,27.0,30.28,SW,230,0.0,0.0,63,0.00,,,0.00,163,weatherlink.com 1.10,2013-11-02 14:28:00,
2013-11-02 09:43:00,40.7,27.0,30.28,SW,230,0.0,0.0,58,0.00,,,0.00,214,weatherlink.com 1.10,2013-11-02 14:43:00,
2013-11-02 09:58:00,39.9,28.0,30.28,South,188,0.0,2.0,63,0.00,,,0.00,255,weatherlink.com 1.10,2013-11-02 14:58:00,
2013-11-02 10:13:00,42.1,29.0,30.28,SSW,202,0.0,8.0,59,0.00,,,0.00,295,weatherlink.com 1.10,2013-11-02 15:13:00,
2013-11-02 10:28:00,43.4,29.0,30.27,SW,224,4.0,8.0,58,0.00,,,0.00,334,weatherlink.com 1.10,2013-11-02 15:28:00,
2013-11-02 10:43:00,46.5,29.0,30.27,SW,225,3.0,6.0,51,0.00,,,0.00,369,weatherlink.com 1.10,2013-11-02 15:43:00,
2013-11-02 10:59:00,47.6,28.0,30.27,South,182,0.0,8.0,47,0.00,,,0.00,403,weatherlink.com 1.10,2013-11-02 15:59:00,
2013-11-02 11:14:00,49.3,28.0,30.26,South,173,2.0,9.0,44,0.00,,,0.00,436,weatherlink.com 1.10,2013-11-02 16:14:00,
2013-11-02 11:29:00,49.6,27.0,30.26,SSW,207,7.0,13.0,42,0.00,,,0.00,466,weatherlink.com 1.10,2013-11-02 16:29:00,
2013-11-02 11:44:00,51.1,27.0,30.26,SW,225,11.0,15.0,40,0.00,,,0.00,492,weatherlink.com 1.10,2013-11-02 16:44:00,
2013-11-02 11:59:00,52.0,27.0,30.25,SSW,208,5.0,15.0,38,0.00,,,0.00,515,weatherlink.com 1.10,2013-11-02 16:59:00,
2013-11-02 12:14:00,53.0,28.0,30.25,SSW,210,3.0,11.0,39,0.00,,,0.00,534,weatherlink.com 1.10,2013-11-02 17:14:00,
2013-11-02 12:29:00,54.1,27.0,30.24,South,190,2.0,11.0,35,0.00,,,0.00,552,weatherlink.com 1.10,2013-11-02 17:29:00,
2013-11-02 12:44:00,54.5,27.0,30.23,SSW,201,8.0,13.0,35,0.00,,,0.00,564,weatherlink.com 1.10,2013-11-02 17:44:00,
2013-11-02 12:59:00,55.5,27.0,30.21,SSW,205,11.0,11.0,34,0.00,,,0.00,573,weatherlink.com 1.10,2013-11-02 17:59:00,
2013-11-02 13:14:00,56.9,29.0,30.20,South,174,13.0,15.0,34,0.00,,,0.00,578,weatherlink.com 1.10,2013-11-02 18:14:00,
2013-11-02 13:29:00,57.3,27.0,30.19,SSW,198,9.0,19.0,32,0.00,,,0.00,580,weatherlink.com 1.10,2013-11-02 18:29:00,
2013-11-02 13:44:00,57.9,28.0,30.18,SSW,202,11.0,18.0,32,0.00,,,0.00,578,weatherlink.com 1.10,2013-11-02 18:44:00,
2013-11-02 13:59:00,57.8,27.0,30.16,SSW,207,3.0,17.0,31,0.00,,,0.00,573,weatherlink.com 1.10,2013-11-02 18:59:00,
2013-11-02 14:14:00,57.8,26.0,30.16,South,173,2.0,18.0,30,0.00,,,0.00,564,weatherlink.com 1.10,2013-11-02 19:14:00,
2013-11-02 14:29:00,58.8,27.0,30.14,SSW,213,3.0,17.0,30,0.00,,,0.00,550,weatherlink.com 1.10,2013-11-02 19:29:00,
2013-11-02 14:44:00,58.9,27.0,30.13,SW,221,15.0,18.0,30,0.00,,,0.00,536,weatherlink.com 1.10,2013-11-02 19:44:00,
2013-11-02 14:59:00,59.9,27.0,30.12,South,180,0.0,19.0,29,0.00,,,0.00,517,weatherlink.com 1.10,2013-11-02 19:59:00,
2013-11-02 15:14:00,59.7,27.0,30.11,South,175,3.0,18.0,29,0.00,,,0.00,492,weatherlink.com 1.10,2013-11-02 20:14:00,
2013-11-02 15:30:00,59.9,27.0,30.10,SSW,192,10.0,22.0,29,0.00,,,0.00,471,weatherlink.com 1.10,2013-11-02 20:30:00,
2013-11-02 15:45:00,59.7,28.0,30.09,SSW,213,13.0,19.0,30,0.00,,,0.00,439,weatherlink.com 1.10,2013-11-02 20:45:00,
2013-11-02 16:00:00,59.8,28.0,30.09,SSW,203,7.0,19.0,30,0.00,,,0.00,410,weatherlink.com 1.10,2013-11-02 21:00:00,
2013-11-02 16:15:00,59.8,28.0,30.07,SSW,205,3.0,18.0,30,0.00,,,0.00,376,weatherlink.com 1.10,2013-11-02 21:15:00,
2013-11-02 16:30:00,60.2,28.0,30.06,South,169,10.0,18.0,30,0.00,,,0.00,341,weatherlink.com 1.10,2013-11-02 21:30:00,
2013-11-02 16:45:00,60.0,28.0,30.05,SSE,159,3.0,18.0,30,0.00,,,0.00,302,weatherlink.com 1.10,2013-11-02 21:45:00,
2013-11-02 17:00:00,60.0,29.0,30.05,SSE,163,8.0,22.0,31,0.00,,,0.00,262,weatherlink.com 1.10,2013-11-02 22:00:00,
2013-11-02 17:15:00,59.7,28.0,30.05,SW,219,16.0,20.0,30,0.00,,,0.00,213,weatherlink.com 1.10,2013-11-02 22:15:00,
2013-11-02 17:30:00,59.4,29.0,30.04,South,181,3.0,16.0,31,0.00,,,0.00,155,weatherlink.com 1.10,2013-11-02 22:30:00,
2013-11-02 17:45:00,58.9,29.0,30.04,South,175,11.0,17.0,32,0.00,,,0.00,104,weatherlink.com 1.10,2013-11-02 22:45:00,
2013-11-02 18:00:00,58.1,29.0,30.03,SSE,157,9.0,16.0,33,0.00,,,0.00,58,weatherlink.com 1.10,2013-11-02 23:00:00,
2013-11-02 18:15:00,57.3,28.0,30.02,South,171,1.0,15.0,33,0.00,,,0.00,23,weatherlink.com 1.10,2013-11-02 23:15:00,
2013-11-02 18:30:00,55.5,29.0,30.02,SSE,154,0.0,9.0,36,0.00,,,0.00,9,weatherlink.com 1.10,2013-11-02 23:30:00,
2013-11-02 18:45:00,53.8,29.0,30.01,SSE,161,0.0,5.0,39,0.00,,,0.00,0,weatherlink.com 1.10,2013-11-02 23:45:00,
2013-11-02 19:00:00,52.7,29.0,30.00,South,173,0.0,5.0,41,0.00,,,0.00,0,weatherlink.com 1.10,2013-11-03 00:00:00,
2013-11-02 19:15:00,52.2,30.0,30.00,South,182,2.0,8.0,42,0.00,,,0.00,0,weatherlink.com 1.10,2013-11-03 00:15:00,
2013-11-02 19:30:00,51.4,29.0,29.99,ESE,123,2.0,9.0,43,0.00,,,0.00,0,weatherlink.com 1.10,2013-11-03 00:30:00,
2013-11-02 19:45:00,50.5,30.0,30.00,SSE,155,0.0,6.0,45,0.00,,,0.00,0,weatherlink.com 1.10,2013-11-03 00:45:00,
2013-11-02 20:00:00,50.0,30.0,30.00,South,172,1.0,6.0,46,0.00,,,0.00,0,weatherlink.com 1.10,2013-11-03 01:00:00,
2013-11-02 20:15:00,49.4,30.0,29.98,South,179,0.0,7.0,47,0.00,,,0.00,0,weatherlink.com 1.10,2013-11-03 01:15:00,
2013-11-02 20:30:00,49.3,30.0,29.98,ESE,114,9.0,13.0,48,0.00,,,0.00,0,weatherlink.com 1.10,2013-11-03 01:30:00,
2013-11-02 20:45:00,48.3,30.0,29.97,SSE,164,3.0,11.0,50,0.00,,,0.00,0,weatherlink.com 1.10,2013-11-03 01:45:00,
2013-11-02 21:00:00,48.3,31.0,29.96,South,191,6.0,10.0,51,0.00,,,0.00,0,weatherlink.com 1.10,2013-11-03 02:00:00,
2013-11-02 21:15:00,48.5,31.0,29.95,South,169,4.0,16.0,51,0.00,,,0.00,0,weatherlink.com 1.10,2013-11-03 02:15:00,
2013-11-02 21:30:00,48.7,31.0,29.94,SSE,165,7.0,18.0,50,0.00,,,0.00,0,weatherlink.com 1.10,2013-11-03 02:30:00,
2013-11-02 21:45:00,48.7,31.0,29.94,SSE,168,7.0,17.0,50,0.00,,,0.00,0,weatherlink.com 1.10,2013-11-03 02:45:00,
2013-11-02 22:00:00,48.6,31.0,29.93,South,190,10.0,20.0,50,0.00,,,0.00,0,weatherlink.com 1.10,2013-11-03 03:00:00,
2013-11-02 22:15:00,48.3,30.0,29.92,South,184,9.0,17.0,50,0.00,,,0.00,0,weatherlink.com 1.10,2013-11-03 03:15:00,
2013-11-02 22:30:00,47.9,30.0,29.92,South,182,10.0,18.0,51,0.00,,,0.00,0,weatherlink.com 1.10,2013-11-03 03:30:00,
2013-11-02 22:45:00,47.4,30.0,29.90,SSE,152,12.0,18.0,52,0.00,,,0.00,0,weatherlink.com 1.10,2013-11-03 03:45:00,
2013-11-02 23:00:00,47.2,30.0,29.90,SSE,162,8.0,19.0,52,0.00,,,0.00,0,weatherlink.com 1.10,2013-11-03 04:00:00,
2013-11-02 23:15:00,46.8,30.0,29.89,ESE,117,10.0,17.0,52,0.00,,,0.00,0,weatherlink.com 1.10,2013-11-03 04:15:00,
2013-11-02 23:30:00,46.3,30.0,29.88,South,184,10.0,20.0,54,0.00,,,0.00,0,weatherlink.com 1.10,2013-11-03 04:30:00,
2013-11-02 23:45:00,45.8,30.0,29.87,SE,132,4.0,19.0,54,0.00,,,0.00,0,weatherlink.com 1.10,2013-11-03 04:45:00,